Location: Newark
(36.0797°N, 3.9744°E)
Time: 02:10:43
(UTC+00:00)

Vanguard 2 - Pass Details

Date: 07 December 2019
Orbit: 553 x 2938 km, 32.9° (Epoch: 23 January)

Event Time Altitude Azimuth Distance (km) Brightness Sun altitude
Exits shadow 03:02:41 67° 208° (SSW) 3,104 10.2 -43.4°
Maximum altitude 03:05:11 73° 166° (SSE) 3,009 10.2 -42.9°
Drops below altitude 10° 03:21:12 10° 86° (E) 5,098 12.4 -39.7°
Sets 03:24:40 0° 84° (E) 5,864 12.9 -39.0°
